| time (UTC) | temp F | wind direction | speed MPH | gust MPH | rain 1hr in | rain 24hr in | rain mn in | humidity % | barometer mb |
| 20260904003110 | 70 | 274 | 2.0 | 3.0 | 0.00 | 0.00 | 0.00 | 84 | 1022.9 |
| 20260904001633 | 71 | 264 | 3.0 | 4.0 | 0.00 | 0.00 | 0.00 | 83 | 1022.9 |
| 20260904000100 | 71 | 283 | 0.0 | 3.0 | 0.00 | 0.00 | 0.00 | 83 | 1022.9 |
| 20260903234542 | 72 | 236 | 1.0 | 4.0 | 0.00 | 0.00 | 0.00 | 82 | 1022.9 |
| 20260903233106 | 72 | 264 | 2.0 | 3.0 | 0.00 | 0.00 | 0.00 | 81 | 1022.9 |
| 20260903231517 | 74 | 308 | 0.0 | 2.0 | 0.00 | 0.00 | 0.00 | 79 | 1022.7 |
| 20260903230037 | 75 | 38 | 0.0 | 2.0 | 0.00 | 0.00 | 0.00 | 78 | 1022.7 |
| 20260903224503 | 76 | 250 | 0.0 | 3.0 | 0.00 | 0.00 | 0.00 | 75 | 1022.5 |
| 20260903223041 | 77 | 237 | 3.0 | 8.0 | 0.00 | 0.00 | 0.00 | 75 | 1022.5 |
| 20260903221532 | 77 | 235 | 2.0 | 4.0 | 0.00 | 0.00 | 0.00 | 76 | 1022.5 |
| 20260903220004 | 76 | 233 | 3.0 | 7.0 | 0.00 | 0.00 | 0.00 | 78 | 1022.5 |
| 20260903214518 | 76 | 247 | 2.0 | 4.0 | 0.00 | 0.00 | 0.00 | 80 | 1022.6 |
| 20260903213015 | 75 | 248 | 5.0 | 7.0 | 0.00 | 0.00 | 0.00 | 81 | 1022.6 |
| 20260903211533 | 74 | 260 | 5.0 | 7.0 | 0.00 | 0.00 | 0.00 | 83 | 1022.8 |
| 20260903204629 | 74 | 284 | 0.0 | 2.0 | 0.00 | 0.00 | 0.00 | 83 | 1022.8 |
| 20260903203120 | 75 | 248 | 1.0 | 2.0 | 0.00 | 0.00 | 0.00 | 82 | 1022.8 |
| 20260903201642 | 75 | 242 | 1.0 | 3.0 | 0.00 | 0.00 | 0.00 | 83 | 1022.8 |
| 20260903194534 | 76 | 258 | 2.0 | 3.0 | 0.00 | 0.00 | 0.00 | 81 | 1022.5 |
| 20260903193050 | 76 | 275 | 2.0 | 4.0 | 0.00 | 0.00 | 0.00 | 80 | 1022.4 |
| 20260903191612 | 77 | 11 | 0.0 | 1.0 | 0.00 | 0.00 | 0.00 | 81 | 1022.4 |
| 20260903190054 | 78 | 135 | 0.0 | 3.0 | 0.00 | 0.00 | 0.00 | 80 | 1022.3 |
| 20260903184617 | 78 | 80 | 3.0 | 4.0 | 0.00 | 0.00 | 0.00 | 79 | 1022.3 |
| 20260903183025 | 79 | 79 | 1.0 | 5.0 | 0.00 | 0.00 | 0.00 | 78 | 1022.2 |
| 20260903181545 | 80 | 76 | 2.0 | 6.0 | 0.00 | 0.00 | 0.00 | 77 | 1022.3 |
| 20260903180048 | 80 | 45 | 4.0 | 8.0 | 0.00 | 0.00 | 0.00 | 75 | 1022.2 |
| 20260903174612 | 81 | 49 | 4.0 | 6.0 | 0.00 | 0.00 | 0.00 | 73 | 1022.2 |
| 20260903173134 | 82 | 56 | 3.0 | 8.0 | 0.00 | 0.00 | 0.00 | 72 | 1022.1 |
| 20260903171658 | 82 | 78 | 4.0 | 9.0 | 0.00 | 0.00 | 0.00 | 71 | 1022.1 |
| 20260903170153 | 82 | 50 | 5.0 | 11.0 | 0.00 | 0.00 | 0.00 | 71 | 1022.1 |
| 20260903163136 | 84 | 40 | 7.0 | 14.0 | 0.00 | 0.00 | 0.00 | 68 | 1022.0 |
| 20260903161604 | 84 | 29 | 9.0 | 15.0 | 0.00 | 0.00 | 0.00 | 68 | 1021.9 |
| 20260903160130 | 86 | 38 | 6.0 | 14.0 | 0.00 | 0.00 | 0.00 | 64 | 1022.0 |
| 20260903154654 | 87 | 94 | 4.0 | 10.0 | 0.00 | 0.00 | 0.00 | 60 | 1021.8 |
| 20260903151654 | 87 | 153 | 7.0 | 12.0 | 0.00 | 0.00 | 0.00 | 60 | 1022.1 |
| 20260903150148 | 87 | 94 | 5.0 | 14.0 | 0.00 | 0.00 | 0.00 | 60 | 1022.1 |
| 20260903144549 | 86 | 106 | 6.0 | 13.0 | 0.00 | 0.00 | 0.00 | 63 | 1022.2 |
| 20260903143134 | 86 | 61 | 8.0 | 12.0 | 0.00 | 0.00 | 0.00 | 63 | 1022.3 |
| 20260903141530 | 86 | 46 | 4.0 | 12.0 | 0.00 | 0.00 | 0.00 | 62 | 1022.5 |
| 20260903134520 | 86 | 61 | 6.0 | 13.0 | 0.00 | 0.00 | 0.00 | 63 | 1022.7 |
| 20260903133052 | 86 | 23 | 4.0 | 12.0 | 0.00 | 0.00 | 0.00 | 61 | 1022.9 |
| 20260903131541 | 86 | 36 | 2.0 | 13.0 | 0.00 | 0.00 | 0.00 | 61 | 1022.8 |
| 20260903130023 | 85 | 159 | 6.0 | 15.0 | 0.00 | 0.00 | 0.00 | 61 | 1023.0 |
| 20260903124541 | 86 | 66 | 7.0 | 15.0 | 0.00 | 0.00 | 0.00 | 60 | 1023.0 |
| 20260903123038 | 87 | 117 | 7.0 | 13.0 | 0.00 | 0.00 | 0.00 | 57 | 1023.0 |
| 20260903121551 | 87 | 85 | 8.0 | 12.0 | 0.00 | 0.00 | 0.00 | 56 | 1023.0 |
| 20260903120047 | 86 | 59 | 8.0 | 14.0 | 0.00 | 0.00 | 0.00 | 57 | 1023.0 |
| 20260903114604 | 86 | 71 | 6.0 | 14.0 | 0.00 | 0.00 | 0.00 | 57 | 1023.0 |
| 20260903113101 | 86 | 87 | 7.0 | 14.0 | 0.00 | 0.00 | 0.00 | 55 | 1023.3 |
| 20260903111518 | 86 | 33 | 2.0 | 11.0 | 0.00 | 0.00 | 0.00 | 57 | 1023.3 |
| 20260903110024 | 86 | 49 | 2.0 | 13.0 | 0.00 | 0.00 | 0.00 | 60 | 1023.5 |
| 20260903104541 | 85 | 100 | 3.0 | 10.0 | 0.00 | 0.00 | 0.00 | 60 | 1023.5 |
| 20260903103048 | 84 | 54 | 7.0 | 11.0 | 0.00 | 0.00 | 0.00 | 61 | 1023.7 |
| 20260903101516 | 83 | 54 | 5.0 | 11.0 | 0.00 | 0.00 | 0.00 | 60 | 1023.8 |
| 20260903100004 | 83 | 78 | 4.0 | 10.0 | 0.00 | 0.00 | 0.00 | 63 | 1023.9 |
| 20260903094550 | 82 | 142 | 0.0 | 9.0 | 0.00 | 0.00 | 0.00 | 64 | 1023.8 |
| 20260903093050 | 81 | 38 | 3.0 | 9.0 | 0.00 | 0.00 | 0.00 | 66 | 1023.8 |
| 20260903091606 | 80 | 69 | 3.0 | 6.0 | 0.00 | 0.00 | 0.00 | 70 | 1023.8 |
| 20260903090039 | 79 | 77 | 2.0 | 7.0 | 0.00 | 0.00 | 0.00 | 73 | 1023.8 |
| 20260903084602 | 78 | 92 | 3.0 | 8.0 | 0.00 | 0.00 | 0.00 | 75 | 1023.7 |
| 20260903083106 | 77 | 127 | 2.0 | 5.0 | 0.00 | 0.00 | 0.00 | 77 | 1023.6 |
| 20260903081628 | 76 | 124 | 3.0 | 6.0 | 0.00 | 0.00 | 0.00 | 81 | 1023.5 |
| 20260903080122 | 76 | 147 | 0.0 | 2.0 | 0.00 | 0.00 | 0.00 | 82 | 1023.5 |
| 20260903074640 | 73 | 232 | 0.0 | 2.0 | 0.00 | 0.00 | 0.00 | 87 | 1023.8 |
| 20260903073139 | 72 | 237 | 0.0 | 2.0 | 0.00 | 0.00 | 0.00 | 90 | 1023.8 |
| 20260903071700 | 71 | 237 | 1.0 | 3.0 | 0.00 | 0.00 | 0.00 | 90 | 1023.8 |
| 20260903070143 | 69 | 138 | 0.0 | 2.0 | 0.00 | 0.00 | 0.00 | 90 | 1023.6 |
| 20260903064645 | 69 | 138 | 0.0 | 2.0 | 0.00 | 0.00 | 0.00 | 90 | 1023.5 |
| 20260903060152 | 68 | 244 | 0.0 | 3.0 | 0.00 | 0.00 | 0.00 | 92 | 1023.1 |
| 20260903054659 | 67 | 256 | 2.0 | 6.0 | 0.00 | 0.00 | 0.00 | 92 | 1022.8 |
| 20260903053012 | 67 | 268 | 2.0 | 4.0 | 0.00 | 0.00 | 0.00 | 92 | 1022.9 |
| 20260903051551 | 67 | 266 | 0.0 | 2.0 | 0.00 | 0.00 | 0.00 | 92 | 1022.5 |
| 20260903050039 | 67 | 266 | 0.0 | 2.0 | 0.00 | 0.00 | 0.00 | 91 | 1022.6 |
| 20260903044640 | 67 | 266 | 1.0 | 3.0 | 0.00 | 0.00 | 0.00 | 91 | 1022.4 |
| 20260903043003 | 67 | 258 | 3.0 | 4.0 | 0.00 | 0.00 | 0.00 | 91 | 1022.4 |
| 20260903041613 | 67 | 266 | 0.0 | 2.0 | 0.00 | 0.00 | 0.00 | 90 | 1022.5 |
| 20260903040058 | 67 | 266 | 2.0 | 3.0 | 0.00 | 0.00 | 0.00 | 90 | 1022.3 |
| 20260903040019 | 67 | 266 | 2.0 | 3.0 | 0.00 | 0.00 | 0.00 | 90 | 1022.3 |
| 20260903034615 | 67 | 266 | 0.0 | 3.0 | 0.00 | 0.00 | 0.00 | 90 | 1022.4 |
| 20260903033131 | 67 | 260 | 3.0 | 6.0 | 0.00 | 0.00 | 0.00 | 91 | 1022.5 |
| 20260903031638 | 67 | 286 | 3.0 | 4.0 | 0.00 | 0.00 | 0.00 | 91 | 1022.6 |
| 20260903030134 | 67 | 277 | 1.0 | 2.0 | 0.00 | 0.00 | 0.00 | 90 | 1022.6 |
| 20260903024646 | 67 | 262 | 0.0 | 2.0 | 0.00 | 0.00 | 0.00 | 89 | 1022.7 |
| 20260903021535 | 68 | 262 | 0.0 | 2.0 | 0.00 | 0.00 | 0.00 | 89 | 1022.6 |
| 20260903020036 | 68 | 308 | 1.0 | 2.0 | 0.00 | 0.00 | 0.00 | 89 | 1022.7 |
| 20260903014546 | 68 | 277 | 1.0 | 3.0 | 0.00 | 0.00 | 0.00 | 89 | 1022.6 |
| 20260903013056 | 68 | 266 | 1.0 | 2.0 | 0.00 | 0.00 | 0.00 | 89 | 1022.6 |
| 20260903011622 | 69 | 267 | 0.0 | 2.0 | 0.00 | 0.00 | 0.00 | 89 | 1022.6 |
| 20260903010020 | 69 | 267 | 1.0 | 3.0 | 0.00 | 0.00 | 0.00 | 89 | 1022.5 |
| 20260903004533 | 69 | 275 | 1.0 | 3.0 | 0.00 | 0.00 | 0.00 | 88 | 1022.6 |